Regional Weather Roundup
Issued by NWS

Home | Current Version | Previous Version | Text Only | Print | Product List | Glossary Off
Versions: 1 2 3 4 5 6 7 8 9 10 11 12 13 14 15 16 17 18 19 20 21 22 23 24 25 26 27 28 29 30 31 32 33 34 35 36 37 38 39 40 41 42 43 44 45 46 47 48 49 50

000
ASUS43 KOAX 250202
RWRNE

WEATHER ROUNDUP FOR NEBRASKA
NATIONAL WEATHER SERVICE OMAHA NE
900 PM CDT WED AUG 24 2016

NOTES: SATELLITE DATA IS BEING USED TO AUGMENT CLOUD COVER ABOVE
       12000 FEET.
       "FAIR" INDICATES FEW OR NO CLOUDS BELOW 12,000 FEET WITH NO
       SIGNIFICANT WEATHER AND/OR OBSTRUCTIONS TO VISIBILITY.

  * THESE STATIONS DO NOT REPORT WEATHER SUCH AS RAIN...SNOW OR FOG.

NEZ001>004-019>022-054>056-250300-
NEBRASKA PANHANDLE

CITY           SKY/WX    TMP DP  RH WIND       PRES   REMARKS
SCOTTSBLUFF    PTCLDY    64  46  52 E7        30.18R
ALLIANCE       CLOUDY    65  46  50 CALM      30.19R
CHADRON        TSTM      69  43  38 S8        30.17R
SIDNEY         PTCLDY    63  42  46 NE7       30.22R
$$

NEZ057>060-069>072-079>082-250300-
SOUTHWEST NEBRASKA

CITY           SKY/WX    TMP DP  RH WIND       PRES   REMARKS
NORTH PLATTE   PTCLDY    65  54  67 E3        30.14R
IMPERIAL       CLOUDY    67  45  45 CALM      30.17R
LEXINGTON      CLOUDY    68  49  51 SE6       30.13R
MCCOOK         CLOUDY    66  50  56 SE6       30.13S
OGALLALA       CLOUDY    67  48  51 CALM      30.17R
$$

NEZ005>010-023>029-035>040-094-250300-
NORTH CENTRAL NEBRASKA

CITY           SKY/WX    TMP DP  RH WIND       PRES   REMARKS
VALENTINE      MOCLDY    62  54  74 SW6       30.16R
AINSWORTH      CLOUDY    64  56  75 SW5       30.17R
BROKEN BOW     CLOUDY    65  54  67 E6        30.12R
O`NEILL        PTCLDY    65  56  71 NW3       30.13R
ORD            CLOUDY    65  59  81 CALM      30.11R
THEDFORD       CLOUDY    66  51  58 CALM      30.17S
$$

NEZ041-046>049-061>064-073>077-083>087-250300-
SOUTH CENTRAL NEBRASKA

CITY           SKY/WX    TMP DP  RH WIND       PRES   REMARKS
GRAND ISLAND   CLOUDY    62  55  77 CALM      30.11R
AURORA         CLOUDY    61  59  92 NE5       30.10R
HASTINGS       CLEAR     62  56  80 CALM      30.12R
HEBRON         CLOUDY    64  60  87 N3        30.07F
HOLDREGE       PTCLDY    63  55  74 E3        30.13R
KEARNEY *      CLOUDY    64  54  68 E6        30.12R
YORK           CLOUDY    63  59  88 CALM      30.10R
$$

NEZ011>018-030>034-042>045-250300-
NORTHEAST NEBRASKA

CITY           SKY/WX    TMP DP  RH WIND       PRES   REMARKS
NORFOLK        CLEAR     59  56  89 CALM      30.09R
ALBION         PTCLDY    61  56  83 CALM      30.11R
BLAIR          CLOUDY    67  61  80 NW3       30.06R
FREMONT        CLOUDY    65  61  86 W7        30.08R
TEKAMAH        PTCLDY    66  62  87 NW9       30.05R
WAYNE          PTCLDY    62  61  96 CALM      30.09R
$$

NEZ050>053-065>068-078-088>093-250300-
SOUTHEAST NEBRASKA

CITY           SKY/WX    TMP DP  RH WIND       PRES   REMARKS
LINCOLN        CLOUDY    68  63  84 N5        30.07R
OMAHA EPPLEY   CLOUDY    69  64  84 N7        30.04R
BEATRICE       CLOUDY    65  63  93 NW5       30.07R
FALLS CITY     CLOUDY    70  69  97 NW5       30.02F
NEBRASKA CITY  CLOUDY    69  69  99 CALM      30.04S
PLATTSMOUTH    CLOUDY    68  65  91 NW3       30.04R
$$

NEZ044-045-051>053-067-250300-
OMAHA AREA

CITY           SKY/WX    TMP DP  RH WIND       PRES   REMARKS
OMAHA EPPLEY   CLOUDY    69  64  84 N7        30.04R
BLAIR          CLOUDY    67  61  80 NW3       30.06R
FREMONT        CLOUDY    65  61  86 W7        30.08R
MILLARD        CLOUDY    70  63  78 NW7       30.06R
OFFUTT AFB     CLOUDY    70  65  82 N5        30.04R
PLATTSMOUTH    CLOUDY    68  65  91 NW3       30.04R
WAHOO          FAIR      65  60  85 CALM      30.07R
$$



USA.gov is the U.S. government's official web portal to all federal, state and local government web resources and services.